Location: Avenches
(46.8809°N, 7.0410°E)
Time: 11:44:00
(UTC+00:00)

STARLINK-1086 - Pass Details

Date: 30 March 2020
Orbit: 548 x 551 km, 53.0° (Epoch: 03 June)

Event Time Altitude Azimuth Distance (km) Brightness Sun altitude
Rises 18:13:52 0° 296° (WNW) 2,741 9.0 -3.4°
Reaches altitude 10° 18:16:15 10° 287° (WNW) 1,842 8.2 -3.8°
Maximum altitude 18:20:03 35° 222° (SW) 915 5.1 -4.4°
Drops below altitude 10° 18:23:50 10° 156° (SSE) 1,828 5.9 -5.0°
Enters shadow 18:26:46 -2° 146° (SE) 2,940 6.9 -5.5°
